Home > Weather > Gaziantep > Past weeks

Flag for Turkey Past Weather in Gaziantep, Turkey — Yesterday and Last 2 Weeks

Now
95 °F

Sunny.


Feels Like: 91 °F
Forecast: 70 / 98 °F
Wind: 5 mph from North

Location: Gaziantep Airport

Current Time: Jul 27, 2016 at 10:46:46 AM

Latest Report: Jul 27, 2016 at 9:50 AM


Visibility: 10 mi

Pressure: 29.80 "Hg (27.10 "Hg at 856m altitude)

Humidity: 16%

Dew Point: 43 °F

Location of GaziantepLocation

Past Weather in Gaziantep — Graph

°F

Gaziantep Temperature Yesterday

Maximum temperature yesterday: 100 °F (at 2:20 PM)
Minimum temperature yesterday: 79 °F (at 3:20 AM)
Average temperature yesterday: 89 °F

High & Low Weather Summary for the Past Weeks

 TemperatureHumidityPressure
High106 °F (Jul 16, 12:20 PM)74% (Jul 19, 4:20 AM)29.92 "Hg (Jul 19, 4:20 AM)
Low70 °F (Jul 13, 4:50 AM)4% (Jul 24, 2:20 PM)29.62 "Hg (Jul 14, 6:50 AM)
Average88 °F32%29.78 "Hg
* Reported Jul 12 9:20 AM — Jul 27 9:20 AM, Gaziantep, Weather by CustomWeather, © 2016

Note: Actual official high and low records may vary slightly from our data, if they occured in-between our weather recording intervals... More about our weather records

Advertising

Gaziantep Weather History for the Previous 24 Hours

Scroll right to see more
 ConditionsComfort  
Time TempWeatherWind HumidityBarometerVisibility
9:20 AM
Wed, Jul 27
95 °FSunny.6 mph19%29.80 "Hg10 mi
8:50 AM91 °FSunny.5 mph23%29.80 "Hg10 mi
8:20 AM90 °FSunny.6 mph24%29.77 "Hg10 mi
7:50 AM90 °FSunny.3 mph24%29.77 "Hg10 mi
7:20 AM86 °FSunny.6 mph29%29.77 "Hg10 mi
6:50 AM82 °FSunny.3 mph55%29.77 "Hg10 mi
6:20 AM82 °FClear.3 mph32%29.77 "Hg10 mi
5:50 AM81 °FClear.5 mph34%29.77 "Hg10 mi
5:20 AM82 °FClear.10 mph32%29.77 "Hg10 mi
4:50 AM81 °FClear.2 mph37%29.77 "Hg10 mi
4:20 AM81 °FClear.6 mph39%29.77 "Hg10 mi
3:50 AM81 °FClear.5 mph39%29.77 "Hg10 mi
3:20 AM81 °FClear.5 mph39%29.77 "Hg10 mi
2:50 AM81 °FClear.5 mph45%29.77 "Hg10 mi
2:20 AM81 °FClear.5 mph45%29.77 "Hg10 mi
1:50 AM81 °FClear.5 mph51%29.77 "Hg10 mi
1:20 AM81 °FClear.5 mph51%29.77 "Hg10 mi
12:50 AM81 °FClear.5 mph51%29.77 "Hg10 mi
12:20 AM81 °FClear.5 mph51%29.77 "Hg10 mi
11:50 PM
Tue, Jul 26
81 °FClear.5 mph51%29.77 "Hg10 mi
11:20 PM82 °FClear.7 mph51%29.77 "Hg10 mi
10:50 PM82 °FClear.9 mph51%29.77 "Hg10 mi
10:20 PM82 °FClear.8 mph51%29.77 "Hg10 mi
9:50 PM84 °FClear.6 mph45%29.77 "Hg10 mi
9:20 PM86 °FClear.8 mph40%29.77 "Hg10 mi
8:50 PM86 °FClear.8 mph40%29.77 "Hg10 mi
8:20 PM88 °FSunny.8 mph33%29.77 "Hg10 mi
7:50 PM88 °FSunny.8 mph31%29.74 "Hg10 mi
7:20 PM91 °FSunny.8 mph26%29.74 "Hg10 mi
6:50 PM93 °FSunny.8 mph24%29.74 "Hg10 mi
6:20 PM97 °FSunny.8 mph13%29.74 "Hg10 mi
5:50 PM99 °FSunny.9 mph10%29.74 "Hg10 mi
5:20 PM99 °FSunny.6 mph10%29.74 "Hg10 mi
4:50 PM99 °FSunny.7 mph8%29.74 "Hg10 mi
4:20 PM99 °FSunny.8 mph8%29.74 "Hg10 mi
3:50 PM99 °FSunny.8 mph8%29.74 "Hg10 mi
3:20 PM99 °FSunny.7 mph8%29.74 "Hg10 mi
2:50 PM99 °FSunny.7 mph7%29.74 "Hg10 mi
2:20 PM100 °FSunny.6 mph7%29.74 "Hg10 mi
1:50 PM99 °FSunny.6 mph8%29.77 "Hg10 mi
1:20 PM99 °FSunny.7 mph9%29.77 "Hg10 mi
12:50 PM97 °FSunny.6 mph11%29.77 "Hg10 mi
12:20 PM97 °FSunny.3 mph11%29.77 "Hg10 mi
11:50 AM97 °FSunny.5 mph11%29.77 "Hg10 mi
11:20 AM95 °FSunny.5 mph11%29.77 "Hg10 mi
10:50 AM93 °FSunny.5 mph13%29.80 "Hg10 mi
10:20 AM91 °FSunny.7 mph16%29.80 "Hg10 mi
Weather by CustomWeather, © 2016

See weather overviewHow to use our weather pages